Terug naar catalogus

FENGYUN 1C DEB

ActiefPO
NORAD 30145·DEBRIS·🇨🇳 China

Gelanceerd May 10, 1999 vanaf Taiyuan Satellite Launch Center

Loading…

Volgende Passages (komende 24 uur)

TLE

VersSource: Space-Track

Epoch: Sep 14, 2026, 07:16 UTC

1 30145U 99025TA  26257.30334373  .00003225  00000-0  15780-2 0  9991
2 30145  99.2761  22.8030 0088236  94.4484 296.4165 14.16623900   931

Volg FENGYUN 1C DEB in realtime met AllMySat

Download on the App Store